| time (UTC) | temp F | wind direction | speed MPH | gust MPH | rain 1hr in | rain 24hr in | rain mn in | humidity % | barometer mb |
| 20260905113104 | 69 | 128 | 0.0 | 0.0 | 0.00 | 0.22 | 0.02 | 93 | 1013.3 |
| 20260905112603 | 69 | 124 | 0.0 | 0.0 | 0.00 | 0.22 | 0.02 | 93 | 1013.3 |
| 20260905112103 | 69 | 127 | 0.0 | 0.0 | 0.00 | 0.23 | 0.02 | 93 | 1013.2 |
| 20260905111104 | 69 | 128 | 0.0 | 0.0 | 0.00 | 0.23 | 0.02 | 93 | 1013.1 |
| 20260905110603 | 69 | 130 | 0.0 | 0.0 | 0.00 | 0.23 | 0.02 | 93 | 1013.1 |
| 20260905110104 | 69 | 130 | 0.0 | 0.0 | 0.00 | 0.23 | 0.02 | 93 | 1013.0 |
| 20260905105604 | 70 | 130 | 0.0 | 0.0 | 0.00 | 0.23 | 0.02 | 93 | 1012.8 |
| 20260905105104 | 70 | 130 | 0.0 | 0.0 | 0.01 | 0.23 | 0.02 | 93 | 1012.8 |
| 20260905104604 | 70 | 130 | 0.0 | 0.0 | 0.01 | 0.23 | 0.02 | 93 | 1012.8 |
| 20260905104104 | 70 | 130 | 0.0 | 0.0 | 0.01 | 0.23 | 0.02 | 93 | 1012.8 |
| 20260905103604 | 70 | 130 | 0.0 | 0.0 | 0.01 | 0.23 | 0.02 | 93 | 1012.9 |
| 20260905102604 | 70 | 130 | 0.0 | 0.0 | 0.01 | 0.23 | 0.02 | 93 | 1012.8 |
| 20260905102103 | 70 | 130 | 0.0 | 0.0 | 0.01 | 0.23 | 0.02 | 93 | 1012.8 |
| 20260905101603 | 70 | 130 | 0.0 | 0.0 | 0.01 | 0.23 | 0.02 | 93 | 1012.8 |
| 20260905101104 | 70 | 130 | 0.0 | 0.0 | 0.01 | 0.23 | 0.02 | 93 | 1012.7 |
| 20260905100604 | 70 | 130 | 0.0 | 0.0 | 0.01 | 0.23 | 0.02 | 93 | 1012.9 |
| 20260905100104 | 70 | 130 | 0.0 | 0.0 | 0.01 | 0.23 | 0.02 | 93 | 1012.8 |
| 20260905095604 | 70 | 130 | 0.0 | 0.0 | 0.01 | 0.23 | 0.02 | 93 | 1012.8 |
| 20260905095104 | 70 | 130 | 0.0 | 0.0 | 0.00 | 0.22 | 0.01 | 93 | 1013.0 |
| 20260905094603 | 70 | 130 | 0.0 | 0.0 | 0.00 | 0.22 | 0.01 | 93 | 1013.1 |
| 20260905094104 | 70 | 130 | 0.0 | 0.0 | 0.00 | 0.22 | 0.01 | 93 | 1013.0 |
| 20260905093604 | 70 | 130 | 0.0 | 0.0 | 0.00 | 0.22 | 0.01 | 93 | 1013.0 |
| 20260905093103 | 71 | 130 | 0.0 | 0.0 | 0.00 | 0.22 | 0.01 | 93 | 1012.8 |
| 20260905092604 | 71 | 130 | 0.0 | 0.0 | 0.00 | 0.22 | 0.01 | 93 | 1012.7 |
| 20260905092103 | 71 | 130 | 0.0 | 0.0 | 0.00 | 0.22 | 0.01 | 93 | 1012.6 |
| 20260905091603 | 71 | 130 | 0.0 | 0.0 | 0.00 | 0.22 | 0.01 | 93 | 1012.7 |
| 20260905091103 | 71 | 130 | 0.0 | 0.0 | 0.00 | 0.22 | 0.01 | 93 | 1012.9 |
| 20260905090604 | 71 | 130 | 0.0 | 0.0 | 0.00 | 0.22 | 0.01 | 93 | 1012.8 |
| 20260905090104 | 71 | 130 | 0.0 | 0.0 | 0.00 | 0.22 | 0.01 | 93 | 1012.8 |
| 20260905085104 | 71 | 130 | 0.0 | 0.0 | 0.00 | 0.22 | 0.01 | 93 | 1012.7 |
| 20260905084603 | 71 | 130 | 0.0 | 0.0 | 0.00 | 0.22 | 0.01 | 93 | 1012.7 |
| 20260905084103 | 71 | 130 | 0.0 | 0.0 | 0.00 | 0.22 | 0.01 | 93 | 1012.4 |
| 20260905083603 | 71 | 130 | 0.0 | 0.0 | 0.00 | 0.22 | 0.01 | 93 | 1012.1 |
| 20260905083104 | 71 | 130 | 0.0 | 0.0 | 0.00 | 0.22 | 0.01 | 93 | 1011.9 |
| 20260905082103 | 71 | 130 | 0.0 | 0.0 | 0.00 | 0.22 | 0.01 | 93 | 1011.8 |
| 20260905081603 | 71 | 130 | 0.0 | 0.0 | 0.00 | 0.22 | 0.01 | 93 | 1011.9 |
| 20260905081103 | 71 | 130 | 0.0 | 0.0 | 0.00 | 0.22 | 0.01 | 93 | 1012.1 |
| 20260905080603 | 71 | 130 | 0.0 | 0.0 | 0.00 | 0.22 | 0.01 | 93 | 1012.2 |
| 20260905080104 | 71 | 130 | 0.0 | 0.0 | 0.00 | 0.22 | 0.01 | 93 | 1012.3 |
| 20260905075604 | 71 | 130 | 0.0 | 0.0 | 0.00 | 0.22 | 0.01 | 93 | 1012.3 |
| 20260905074604 | 72 | 130 | 0.0 | 0.0 | 0.00 | 0.22 | 0.01 | 93 | 1012.2 |
| 20260905074103 | 72 | 130 | 0.0 | 0.0 | 0.00 | 0.22 | 0.01 | 93 | 1012.3 |
| 20260905073603 | 72 | 130 | 0.0 | 0.0 | 0.00 | 0.22 | 0.01 | 93 | 1012.4 |
| 20260905073103 | 72 | 130 | 0.0 | 0.0 | 0.00 | 0.22 | 0.01 | 93 | 1012.5 |
| 20260905071104 | 72 | 130 | 0.0 | 0.0 | 0.00 | 0.22 | 0.01 | 93 | 1012.2 |
| 20260905070604 | 72 | 130 | 0.0 | 0.0 | 0.00 | 0.22 | 0.01 | 93 | 1012.2 |
| 20260905070103 | 72 | 130 | 0.0 | 0.0 | 0.01 | 0.22 | 0.01 | 93 | 1012.2 |
| 20260905065604 | 72 | 130 | 0.0 | 0.0 | 0.01 | 0.22 | 0.01 | 93 | 1012.2 |
| 20260905065103 | 72 | 130 | 0.0 | 0.0 | 0.01 | 0.22 | 0.01 | 93 | 1012.2 |
| 20260905064603 | 72 | 130 | 0.0 | 0.0 | 0.01 | 0.22 | 0.01 | 93 | 1012.2 |
| 20260905064104 | 72 | 130 | 0.0 | 0.0 | 0.01 | 0.22 | 0.01 | 93 | 1012.2 |
| 20260905063105 | 72 | 241 | 0.0 | 0.0 | 0.01 | 0.22 | 0.01 | 92 | 1012.2 |
| 20260905062605 | 72 | 241 | 0.0 | 0.0 | 0.01 | 0.22 | 0.01 | 92 | 1012.2 |
| 20260905062105 | 72 | 241 | 0.0 | 0.0 | 0.01 | 0.22 | 0.01 | 92 | 1012.2 |
| 20260905061604 | 73 | 241 | 0.0 | 0.0 | 0.01 | 0.22 | 0.01 | 92 | 1012.2 |
| 20260905060105 | 73 | 241 | 0.0 | 0.0 | 0.00 | 0.21 | 0.00 | 92 | 1012.2 |
| 20260905054604 | 73 | 242 | 0.0 | 0.0 | 0.00 | 0.22 | 0.00 | 92 | 1012.4 |
| 20260905054104 | 73 | 242 | 0.0 | 0.0 | 0.00 | 0.22 | 0.00 | 92 | 1012.6 |
| 20260905053105 | 73 | 238 | 0.0 | 0.0 | 0.00 | 0.22 | 0.00 | 92 | 1012.7 |
| 20260905052605 | 73 | 238 | 0.0 | 0.0 | 0.00 | 0.22 | 0.00 | 92 | 1012.6 |
| 20260905052104 | 73 | 238 | 0.0 | 0.0 | 0.00 | 0.22 | 0.00 | 92 | 1012.7 |
| 20260905051105 | 73 | 238 | 0.0 | 0.0 | 0.00 | 0.22 | 0.00 | 92 | 1012.7 |
| 20260905050604 | 73 | 238 | 0.0 | 0.0 | 0.00 | 0.22 | 0.00 | 92 | 1012.5 |
| 20260905050104 | 73 | 238 | 0.0 | 0.0 | 0.00 | 0.22 | 0.00 | 92 | 1012.7 |
| 20260905045604 | 73 | 238 | 0.0 | 0.0 | 0.01 | 0.22 | 0.00 | 92 | 1012.7 |
| 20260905045105 | 73 | 238 | 0.0 | 0.0 | 0.01 | 0.22 | 0.00 | 92 | 1012.7 |
| 20260905044604 | 73 | 238 | 0.0 | 0.0 | 0.01 | 0.22 | 0.00 | 91 | 1012.8 |
| 20260905043604 | 73 | 238 | 0.0 | 0.0 | 0.01 | 0.23 | 0.00 | 91 | 1012.9 |
| 20260905043104 | 73 | 238 | 0.0 | 0.0 | 0.01 | 0.23 | 0.00 | 91 | 1013.0 |
| 20260905042606 | 74 | 238 | 0.0 | 0.0 | 0.01 | 0.23 | 0.00 | 91 | 1013.1 |
| 20260905041604 | 73 | 238 | 0.0 | 0.0 | 0.01 | 0.23 | 0.00 | 91 | 1012.9 |
| 20260905041104 | 73 | 238 | 0.0 | 0.0 | 0.01 | 0.23 | 0.00 | 91 | 1012.9 |
| 20260905040604 | 74 | 238 | 0.0 | 0.0 | 0.01 | 0.23 | 0.00 | 91 | 1012.9 |
| 20260905040105 | 74 | 238 | 0.0 | 0.0 | 0.01 | 0.23 | 0.00 | 91 | 1013.0 |
| 20260905035604 | 74 | 238 | 0.0 | 0.0 | 0.00 | 0.22 | 0.22 | 91 | 1013.0 |
| 20260905035104 | 74 | 238 | 0.0 | 0.0 | 0.00 | 0.23 | 0.22 | 91 | 1013.1 |
| 20260905034604 | 74 | 238 | 0.0 | 0.0 | 0.00 | 0.23 | 0.22 | 91 | 1013.2 |
| 20260905034104 | 74 | 238 | 0.0 | 0.0 | 0.00 | 0.23 | 0.22 | 91 | 1013.2 |
| 20260905033604 | 74 | 238 | 0.0 | 0.0 | 0.00 | 0.23 | 0.22 | 91 | 1013.3 |
| 20260905033105 | 74 | 238 | 0.0 | 0.0 | 0.00 | 0.23 | 0.22 | 91 | 1013.3 |
| 20260905032605 | 74 | 238 | 0.0 | 0.0 | 0.00 | 0.23 | 0.22 | 91 | 1013.3 |
| 20260905032104 | 74 | 238 | 0.0 | 0.0 | 0.00 | 0.23 | 0.22 | 91 | 1013.4 |
| 20260905031104 | 74 | 238 | 0.0 | 0.0 | 0.00 | 0.24 | 0.22 | 91 | 1013.4 |
| 20260905030604 | 74 | 238 | 0.0 | 0.0 | 0.00 | 0.24 | 0.22 | 91 | 1013.4 |
| 20260905030104 | 73 | 238 | 0.0 | 0.0 | 0.00 | 0.24 | 0.22 | 90 | 1013.6 |
| 20260905025604 | 73 | 238 | 0.0 | 0.0 | 0.00 | 0.24 | 0.22 | 90 | 1013.5 |
| 20260905025105 | 73 | 238 | 0.0 | 0.0 | 0.00 | 0.24 | 0.22 | 90 | 1013.5 |
| 20260905024605 | 73 | 238 | 0.0 | 0.0 | 0.00 | 0.24 | 0.22 | 90 | 1013.4 |
| 20260905024104 | 73 | 238 | 0.0 | 0.0 | 0.00 | 0.24 | 0.22 | 90 | 1013.4 |
| 20260905023105 | 74 | 238 | 0.0 | 0.0 | 0.00 | 0.25 | 0.22 | 90 | 1013.3 |
| 20260905022104 | 74 | 238 | 0.0 | 0.0 | 0.00 | 0.25 | 0.22 | 90 | 1013.3 |
| 20260905021605 | 74 | 238 | 0.0 | 0.0 | 0.00 | 0.25 | 0.22 | 90 | 1013.4 |
| 20260905020604 | 74 | 238 | 0.0 | 0.0 | 0.00 | 0.26 | 0.22 | 90 | 1013.3 |
| 20260905020105 | 74 | 238 | 0.0 | 0.0 | 0.01 | 0.26 | 0.22 | 90 | 1013.3 |
| 20260905015604 | 74 | 238 | 0.0 | 0.0 | 0.01 | 0.26 | 0.22 | 90 | 1013.3 |
| 20260905015104 | 74 | 238 | 0.0 | 0.0 | 0.01 | 0.26 | 0.22 | 89 | 1013.3 |
| 20260905014604 | 74 | 238 | 0.0 | 0.0 | 0.01 | 0.27 | 0.22 | 89 | 1013.3 |
| 20260905014105 | 74 | 238 | 0.0 | 0.0 | 0.01 | 0.27 | 0.22 | 89 | 1013.3 |
| 20260905012605 | 74 | 238 | 0.0 | 0.0 | 0.01 | 0.28 | 0.22 | 89 | 1013.4 |
| 20260905011604 | 74 | 239 | 0.0 | 0.0 | 0.01 | 0.28 | 0.22 | 89 | 1013.3 |
| 20260905011105 | 74 | 239 | 0.0 | 0.0 | 0.01 | 0.28 | 0.22 | 89 | 1013.3 |
| 20260905010605 | 74 | 239 | 0.0 | 0.0 | 0.01 | 0.28 | 0.22 | 89 | 1013.3 |
| 20260905005604 | 75 | 239 | 0.0 | 0.0 | 0.00 | 0.28 | 0.21 | 89 | 1013.3 |
| 20260905005104 | 75 | 239 | 0.0 | 0.0 | 0.00 | 0.28 | 0.21 | 89 | 1013.3 |
| 20260905004606 | 75 | 239 | 0.0 | 0.0 | 0.01 | 0.28 | 0.21 | 89 | 1013.2 |
| 20260905003104 | 75 | 239 | 0.0 | 0.0 | 0.01 | 0.29 | 0.21 | 89 | 1013.2 |
| 20260905002604 | 75 | 239 | 0.0 | 0.0 | 0.01 | 0.29 | 0.21 | 89 | 1013.2 |
| 20260905002104 | 75 | 239 | 0.0 | 0.0 | 0.01 | 0.30 | 0.21 | 89 | 1013.3 |
| 20260905001104 | 76 | 239 | 0.0 | 0.0 | 0.01 | 0.31 | 0.21 | 89 | 1013.2 |
| 20260905000604 | 76 | 239 | 0.0 | 0.0 | 0.01 | 0.31 | 0.21 | 89 | 1013.2 |
| 20260905000104 | 76 | 239 | 0.0 | 0.0 | 0.01 | 0.31 | 0.21 | 89 | 1013.0 |
| 20260904235104 | 76 | 239 | 0.0 | 0.0 | 0.01 | 0.32 | 0.21 | 89 | 1012.9 |
| 20260904234604 | 76 | 239 | 0.0 | 0.0 | 0.00 | 0.31 | 0.20 | 89 | 1012.8 |
| 20260904234104 | 76 | 239 | 0.0 | 0.0 | 0.00 | 0.32 | 0.20 | 90 | 1012.8 |
| 20260904233604 | 76 | 239 | 0.0 | 0.0 | 0.00 | 0.32 | 0.20 | 90 | 1012.9 |
| 20260904232105 | 76 | 239 | 0.0 | 0.0 | 0.00 | 0.33 | 0.20 | 90 | 1012.7 |
| 20260904231104 | 76 | 239 | 0.0 | 0.0 | 0.00 | 0.34 | 0.20 | 90 | 1012.8 |
| 20260904230604 | 76 | 239 | 0.0 | 0.0 | 0.00 | 0.34 | 0.20 | 90 | 1012.7 |
| 20260904225604 | 76 | 239 | 0.0 | 0.0 | 0.01 | 0.35 | 0.20 | 91 | 1012.7 |
| 20260904225104 | 76 | 239 | 0.0 | 0.0 | 0.01 | 0.36 | 0.20 | 90 | 1012.7 |
| 20260904224604 | 76 | 239 | 0.0 | 0.0 | 0.01 | 0.36 | 0.20 | 91 | 1012.6 |
| 20260904224104 | 76 | 239 | 0.0 | 0.0 | 0.01 | 0.37 | 0.20 | 91 | 1012.4 |
| 20260904223604 | 76 | 239 | 0.0 | 0.0 | 0.01 | 0.37 | 0.20 | 91 | 1012.2 |
| 20260904221605 | 76 | 239 | 0.0 | 0.0 | 0.01 | 0.40 | 0.20 | 92 | 1012.4 |
| 20260904221105 | 76 | 239 | 0.0 | 0.0 | 0.01 | 0.40 | 0.20 | 92 | 1012.3 |
| 20260904220604 | 76 | 239 | 0.0 | 0.0 | 0.02 | 0.41 | 0.20 | 92 | 1012.3 |
| 20260904220104 | 76 | 240 | 0.0 | 0.0 | 0.02 | 0.42 | 0.20 | 92 | 1012.3 |
| 20260904215604 | 76 | 265 | 0.0 | 0.0 | 0.01 | 0.41 | 0.19 | 92 | 1012.2 |
| 20260904215104 | 76 | 308 | 0.0 | 0.0 | 0.01 | 0.42 | 0.19 | 93 | 1012.3 |
| 20260904214604 | 75 | 308 | 0.0 | 0.0 | 0.01 | 0.43 | 0.19 | 93 | 1012.3 |
| 20260904214104 | 75 | 313 | 0.0 | 0.0 | 0.01 | 0.44 | 0.19 | 93 | 1012.3 |
| 20260904213104 | 75 | 250 | 0.0 | 0.0 | 0.01 | 0.47 | 0.19 | 93 | 1012.1 |
| 20260904212605 | 75 | 250 | 0.0 | 0.0 | 0.01 | 0.48 | 0.19 | 94 | 1012.0 |
| 20260904212104 | 75 | 250 | 0.0 | 0.0 | 0.01 | 0.50 | 0.19 | 93 | 1012.1 |
| 20260904211605 | 75 | 248 | 0.0 | 0.0 | 0.01 | 0.52 | 0.19 | 94 | 1012.2 |
| 20260904211104 | 75 | 260 | 0.0 | 0.0 | 0.01 | 0.54 | 0.19 | 94 | 1012.2 |
| 20260904210604 | 75 | 234 | 0.0 | 0.0 | 0.00 | 0.55 | 0.18 | 94 | 1012.1 |
| 20260904210104 | 75 | 240 | 0.0 | 0.0 | 0.01 | 0.57 | 0.18 | 94 | 1012.2 |
| 20260904205104 | 75 | 258 | 0.0 | 0.0 | 0.01 | 0.62 | 0.18 | 95 | 1012.0 |
| 20260904204604 | 75 | 272 | 0.0 | 0.0 | 0.01 | 0.65 | 0.18 | 95 | 1011.9 |
| 20260904204104 | 74 | 252 | 0.0 | 0.0 | 0.01 | 0.68 | 0.18 | 95 | 1011.7 |
| 20260904203604 | 74 | 249 | 0.0 | 0.0 | 0.01 | 0.71 | 0.18 | 95 | 1011.7 |
| 20260904203104 | 74 | 254 | 0.0 | 0.0 | 0.01 | 0.74 | 0.18 | 95 | 1011.7 |
| 20260904202605 | 74 | 254 | 0.0 | 0.0 | 0.01 | 0.77 | 0.18 | 95 | 1011.5 |
| 20260904202104 | 74 | 251 | 0.0 | 0.0 | 0.02 | 0.80 | 0.18 | 95 | 1011.6 |
| 20260904201604 | 74 | 248 | 0.0 | 0.0 | 0.02 | 0.82 | 0.18 | 95 | 1011.6 |
| 20260904201104 | 74 | 242 | 0.0 | 0.0 | 0.02 | 0.84 | 0.18 | 95 | 1011.7 |
| 20260904200604 | 74 | 242 | 0.0 | 0.0 | 0.02 | 0.84 | 0.18 | 95 | 1011.7 |
| 20260904200104 | 74 | 242 | 0.0 | 0.0 | 0.01 | 0.83 | 0.17 | 95 | 1011.7 |
| 20260904195604 | 74 | 242 | 0.0 | 0.0 | 0.01 | 0.83 | 0.17 | 96 | 1011.8 |
| 20260904195104 | 74 | 242 | 0.0 | 0.0 | 0.01 | 0.83 | 0.17 | 95 | 1012.1 |
| 20260904194604 | 73 | 252 | 0.0 | 0.0 | 0.01 | 0.83 | 0.17 | 95 | 1012.1 |
| 20260904194104 | 74 | 242 | 0.0 | 0.0 | 0.01 | 0.83 | 0.17 | 95 | 1012.2 |
| 20260904193604 | 74 | 226 | 0.0 | 0.0 | 0.01 | 0.83 | 0.17 | 96 | 1012.2 |
| 20260904193104 | 73 | 226 | 0.0 | 0.0 | 0.02 | 0.83 | 0.17 | 96 | 1012.3 |
| 20260904192604 | 73 | 226 | 0.0 | 0.0 | 0.02 | 0.83 | 0.17 | 96 | 1012.4 |
| 20260904192104 | 73 | 226 | 0.0 | 0.0 | 0.01 | 0.82 | 0.16 | 96 | 1012.5 |
| 20260904191604 | 73 | 236 | 0.0 | 0.0 | 0.01 | 0.82 | 0.16 | 96 | 1012.6 |
| 20260904190604 | 73 | 208 | 0.0 | 0.0 | 0.01 | 0.82 | 0.16 | 96 | 1012.8 |
| 20260904185604 | 73 | 184 | 0.0 | 0.0 | 0.02 | 0.82 | 0.16 | 96 | 1012.7 |
| 20260904185104 | 73 | 250 | 0.0 | 0.0 | 0.02 | 0.82 | 0.16 | 96 | 1012.8 |
| 20260904184604 | 73 | 217 | 0.0 | 0.0 | 0.02 | 0.82 | 0.16 | 96 | 1012.8 |
| 20260904184104 | 72 | 192 | 0.0 | 0.0 | 0.02 | 0.82 | 0.16 | 96 | 1013.0 |
| 20260904183604 | 72 | 250 | 0.0 | 0.0 | 0.02 | 0.82 | 0.16 | 96 | 1013.3 |
| 20260904183104 | 72 | 245 | 0.0 | 0.0 | 0.01 | 0.81 | 0.15 | 96 | 1013.4 |
| 20260904181604 | 73 | 243 | 0.0 | 0.0 | 0.02 | 0.81 | 0.15 | 96 | 1013.7 |
| 20260904181104 | 73 | 230 | 0.0 | 0.0 | 0.02 | 0.81 | 0.15 | 96 | 1013.4 |
| 20260904180604 | 73 | 218 | 0.0 | 0.0 | 0.02 | 0.81 | 0.15 | 96 | 1013.4 |
| 20260904175604 | 73 | 226 | 0.0 | 0.0 | 0.01 | 0.80 | 0.14 | 96 | 1013.8 |
| 20260904174604 | 72 | 244 | 0.0 | 0.0 | 0.01 | 0.80 | 0.14 | 96 | 1013.4 |
| 20260904174104 | 72 | 196 | 0.0 | 0.0 | 0.02 | 0.80 | 0.14 | 96 | 1013.6 |
| 20260904173604 | 72 | 196 | 0.0 | 0.0 | 0.02 | 0.80 | 0.14 | 96 | 1013.5 |
| 20260904173104 | 72 | 147 | 0.0 | 0.0 | 0.02 | 0.80 | 0.14 | 96 | 1013.3 |
| 20260904172604 | 72 | 188 | 0.0 | 5.0 | 0.02 | 0.80 | 0.14 | 96 | 1013.8 |
| 20260904172104 | 72 | 205 | 1.0 | 3.0 | 0.02 | 0.80 | 0.14 | 96 | 1014.1 |
| 20260904171604 | 71 | 207 | 1.0 | 2.0 | 0.01 | 0.79 | 0.13 | 96 | 1014.2 |
| 20260904170604 | 71 | 207 | 0.0 | 1.0 | 0.01 | 0.79 | 0.13 | 96 | 1013.8 |
| 20260904170104 | 71 | 207 | 1.0 | 2.0 | 0.01 | 0.79 | 0.13 | 96 | 1014.3 |
| 20260904165604 | 71 | 197 | 0.0 | 1.0 | 0.02 | 0.79 | 0.13 | 96 | 1013.8 |
| 20260904165104 | 71 | 197 | 1.0 | 2.0 | 0.02 | 0.79 | 0.13 | 96 | 1013.8 |
| 20260904164604 | 71 | 197 | 1.0 | 2.0 | 0.02 | 0.79 | 0.13 | 96 | 1013.8 |
| 20260904163604 | 71 | 198 | 3.0 | 6.0 | 0.01 | 0.78 | 0.12 | 96 | 1013.4 |
| 20260904163104 | 71 | 226 | 3.0 | 12.0 | 0.01 | 0.78 | 0.12 | 96 | 1013.3 |
| 20260904162604 | 71 | 184 | 3.0 | 6.0 | 0.02 | 0.78 | 0.12 | 96 | 1013.3 |
| 20260904162104 | 71 | 215 | 3.0 | 7.0 | 0.02 | 0.78 | 0.12 | 96 | 1013.7 |
| 20260904161604 | 71 | 210 | 2.0 | 5.0 | 0.02 | 0.78 | 0.12 | 96 | 1013.8 |
| 20260904161103 | 71 | 194 | 3.0 | 6.0 | 0.02 | 0.78 | 0.12 | 96 | 1013.9 |
| 20260904160604 | 71 | 186 | 1.0 | 2.0 | 0.02 | 0.78 | 0.12 | 96 | 1014.4 |
| 20260904155604 | 70 | 229 | 1.0 | 3.0 | 0.01 | 0.77 | 0.11 | 96 | 1015.3 |
| 20260904155104 | 70 | 261 | 1.0 | 2.0 | 0.01 | 0.77 | 0.11 | 96 | 1015.4 |
| 20260904154604 | 70 | 261 | 0.0 | 1.0 | 0.02 | 0.77 | 0.11 | 96 | 1015.7 |
| 20260904153604 | 70 | 261 | 0.0 | 1.0 | 0.02 | 0.77 | 0.11 | 95 | 1015.9 |
| 20260904153104 | 70 | 261 | 0.0 | 0.0 | 0.02 | 0.77 | 0.11 | 95 | 1015.4 |
| 20260904152604 | 70 | 261 | 0.0 | 1.0 | 0.02 | 0.76 | 0.10 | 95 | 1015.4 |
| 20260904152104 | 70 | 261 | 0.0 | 1.0 | 0.02 | 0.76 | 0.10 | 95 | 1015.4 |
| 20260904151104 | 70 | 109 | 1.0 | 2.0 | 0.02 | 0.76 | 0.10 | 95 | 1015.1 |
| 20260904150604 | 70 | 108 | 1.0 | 2.0 | 0.02 | 0.76 | 0.10 | 95 | 1014.9 |
| 20260904145104 | 70 | 243 | 0.0 | 1.0 | 0.03 | 0.76 | 0.10 | 95 | 1015.7 |
| 20260904144604 | 70 | 243 | 0.0 | 2.0 | 0.02 | 0.75 | 0.09 | 95 | 1015.8 |
| 20260904144104 | 70 | 246 | 2.0 | 3.0 | 0.03 | 0.75 | 0.09 | 95 | 1015.9 |
| 20260904143604 | 70 | 249 | 1.0 | 3.0 | 0.03 | 0.75 | 0.09 | 95 | 1015.9 |
| 20260904143104 | 70 | 247 | 1.0 | 3.0 | 0.03 | 0.75 | 0.09 | 95 | 1016.2 |
| 20260904142604 | 70 | 254 | 2.0 | 6.0 | 0.02 | 0.74 | 0.08 | 95 | 1016.1 |
| 20260904141603 | 71 | 269 | 1.0 | 6.0 | 0.02 | 0.74 | 0.08 | 95 | 1016.5 |
| 20260904141103 | 71 | 262 | 3.0 | 6.0 | 0.02 | 0.74 | 0.08 | 95 | 1016.4 |
| 20260904140604 | 71 | 268 | 1.0 | 5.0 | 0.03 | 0.74 | 0.08 | 95 | 1016.4 |
| 20260904140104 | 71 | 280 | 0.0 | 2.0 | 0.02 | 0.73 | 0.07 | 95 | 1015.9 |
| 20260904135604 | 71 | 196 | 0.0 | 0.0 | 0.02 | 0.73 | 0.07 | 95 | 1015.6 |
| 20260904135104 | 71 | 181 | 0.0 | 0.0 | 0.02 | 0.73 | 0.07 | 95 | 1015.3 |
| 20260904134604 | 71 | 209 | 0.0 | 0.0 | 0.02 | 0.73 | 0.07 | 95 | 1015.7 |
| 20260904134104 | 71 | 247 | 0.0 | 0.0 | 0.02 | 0.72 | 0.06 | 95 | 1015.7 |
| 20260904133605 | 71 | 243 | 0.0 | 0.0 | 0.02 | 0.72 | 0.06 | 95 | 1015.4 |
| 20260904133103 | 71 | 244 | 0.0 | 0.0 | 0.02 | 0.72 | 0.06 | 95 | 1014.8 |
| 20260904132604 | 71 | 244 | 0.0 | 0.0 | 0.02 | 0.72 | 0.06 | 95 | 1015.1 |
| 20260904132104 | 71 | 251 | 0.0 | 0.0 | 0.02 | 0.72 | 0.06 | 95 | 1014.7 |
| 20260904131604 | 71 | 9 | 0.0 | 0.0 | 0.02 | 0.72 | 0.06 | 95 | 1014.4 |
| 20260904131104 | 71 | 295 | 0.0 | 0.0 | 0.02 | 0.72 | 0.06 | 95 | 1014.8 |
| 20260904130603 | 71 | 294 | 0.0 | 0.0 | 0.01 | 0.71 | 0.05 | 95 | 1014.8 |
| 20260904130104 | 71 | 140 | 0.0 | 0.0 | 0.01 | 0.71 | 0.05 | 95 | 1014.7 |
| 20260904125604 | 71 | 140 | 0.0 | 0.0 | 0.01 | 0.71 | 0.05 | 95 | 1014.3 |
| 20260904124604 | 71 | 140 | 0.0 | 0.0 | 0.02 | 0.71 | 0.05 | 95 | 1014.5 |
| 20260904124104 | 71 | 140 | 0.0 | 0.0 | 0.01 | 0.70 | 0.04 | 95 | 1014.3 |
| 20260904123604 | 71 | 140 | 0.0 | 0.0 | 0.01 | 0.70 | 0.04 | 95 | 1014.1 |
| 20260904123104 | 71 | 141 | 0.0 | 0.0 | 0.01 | 0.70 | 0.04 | 95 | 1014.3 |
| 20260904121604 | 71 | 141 | 0.0 | 0.0 | 0.02 | 0.70 | 0.04 | 95 | 1014.3 |
| 20260904121104 | 71 | 141 | 0.0 | 0.0 | 0.02 | 0.70 | 0.04 | 95 | 1014.4 |
| 20260904120604 | 71 | 141 | 0.0 | 0.0 | 0.02 | 0.70 | 0.04 | 95 | 1014.5 |
| 20260904115104 | 71 | 141 | 0.0 | 0.0 | 0.01 | 0.69 | 0.03 | 95 | 1014.8 |
| 20260904114604 | 71 | 141 | 0.0 | 0.0 | 0.01 | 0.69 | 0.03 | 95 | 1014.8 |
| 20260904113604 | 71 | 141 | 0.0 | 0.0 | 0.01 | 0.69 | 0.03 | 95 | 1014.6 |